Weather in Kipchakovo

Russia / Ryazan Oblast     53°52′42″N   40°07′55″E
temp.,
°C
wind,
m/s
gust,
m/s
humid.,
%
clouds,
%
prec.,
mm/h
press.,
hPa
HPBL,
m
19 september, sun
sun1900:00+6e51260100 0.0 1023407
03:00+6e51161100 0.0 1022408
06:00+6e51164100 0.1 1022481
09:00+5ese51281100 1.3 1022510
12:00+6ese71485100 0.8 1021579
15:00+7ese71380100 1.0 1020547
18:00+7e71482100 0.7 1019627
21:00+7e81686100 2.3 1018695
20 september, mon
mon2000:00+7ese91891100 3.0 1016778
03:00+7ese91793100 10.9 1015877
06:00+7ese91693100 6.9 1014957
09:00+7ese91691100 11.6 1014905
12:00+7ese81489100 0.1 1015848
15:00+7ese81487100 0.2 1015786
18:00+7ese91585100 0.1 1014776
21:00+7ese81589100 1.0 1014845
21 september, tue
tue2100:00+7ese71493100 4.8 1014717
03:00+7ese61295100 4.9 1014517
06:00+8ese61294100 1.4 1013487
09:00+8se51096100 3.0 1014541
12:00+10se5890100 0.1 1013521
15:00+11ese5888100 0.1 1013538
18:00+9ese4894100 0.2 1013309
21:00+9e3697100 0.8 1013228
22 september, wed
wed2200:00+9s1297100 0.2 1013116
03:00+9nw259499 0.2 1013235
06:00+8wnw2295100 0.0 101374
09:00+9wnw238699 0.0 1015271
12:00+11nw117196 0.0 1015563
15:00+13ne116164 0.0 10151078
18:00+11nne2373100 0.0 101660
21:00+10ne3683100 0.1 1016161
23 september, thu
thu2300:00+9ene359490 0.1 1016144
03:00+10e2593100 0.1 1016136
06:00+9e2493100 0.1 1016143
09:00+11ese348673 0.7 1016388
12:00+13ese2376100 1.1 1015240
15:00+15s4564100 1.4 10141018
18:00+12ssw2278100 0.1 101429
21:00+10wnw118199 0.1 101410